Location: Unspecified
(44.0704°N, 88.6889°W)
Time: 22:54:26
(UTC+02:00)

Transit 2A - Pass Details

Date: 21 June 2019
Orbit: 594 x 964 km, 66.7° (Epoch: 19 July)

Event Time Altitude Azimuth Distance (km) Brightness Sun altitude
Rises 14:59:56 0° 333° (NNW) 3,527 9.2 27.2°
Reaches altitude 10° 15:03:44 10° 356° (N) 2,512 8.8 27.9°
Maximum altitude 15:07:00 15° 30° (NNE) 2,095 8.9 28.4°
Drops below altitude 10° 15:10:06 10° 65° (ENE) 2,365 9.9 29.0°
Sets 15:13:30 0° 89° (E) 3,205 10.4 29.6°
